Location: Amherst
(42.5000°N, 72.5000°W)
Time: 08:12:16
(UTC-04:00)

ISS - Pass Details

Date: 20 May 2018
Orbit: 402 x 407 km, 51.6° (Epoch: 25 May)

Event Time Altitude Azimuth Distance (km) Brightness Sun altitude
Rises 03:25:09 0° 307° (NW) 2,319 0.0 -17.6°
Reaches altitude 10° 03:27:21 10° 316° (NW) 1,457 -0.9 -17.3°
Maximum altitude 03:30:23 35° 24° (NNE) 677 -2.1 -17.0°
Drops below altitude 10° 03:33:24 10° 93° (E) 1,453 -0.5 -16.6°
Sets 03:35:35 0° 102° (ESE) 2,310 0.4 -16.4°
